DAL272 KSFO-PHOG

Flight info

Callsign DAL272
Flight time N/A
Altitude 40000
Route GNNRR3 BEBOP R464 BITTA LNDHY1
Aircraft A359/H-SDE2E3GHIJ3J4J5LM1ORWXY/LB1D1

Departure

Time 2026-05-04 20:54
Airport San Francisco International Airport (KSFO)

Arrival

Time N/A
Airport Kahului International Airport (PHOG)
Time Latitude Longitude Altitude Speed Heading
2026-05-04 20:38 37.61877 -122.38359 24 ft 0 kts 297°
2026-05-04 20:43 37.61870 -122.38341 24 ft 3 kts 289°
2026-05-04 20:43 37.61866 -122.38316 24 ft 3 kts 268°
2026-05-04 20:44 37.61869 -122.38292 30 ft 3 kts 248°
2026-05-04 20:44 37.61879 -122.38270 31 ft 3 kts 226°
2026-05-04 20:44 37.61894 -122.38255 26 ft 3 kts 206°
2026-05-04 20:44 37.61912 -122.38247 26 ft 3 kts 185°
2026-05-04 20:45 37.61930 -122.38247 27 ft 3 kts 166°
2026-05-04 20:45 37.61938 -122.38250 28 ft 0 kts 158°
2026-05-04 20:45 37.61940 -122.38251 28 ft 2 kts 155°
2026-05-04 20:45 37.61955 -122.38263 28 ft 3 kts 136°
2026-05-04 20:46 37.61962 -122.38271 29 ft 0 kts 126°
2026-05-04 20:47 37.61953 -122.38253 28 ft 9 kts 117°
2026-05-04 20:48 37.61938 -122.38131 28 ft 16 kts 98°
2026-05-04 20:48 37.61907 -122.37990 28 ft 16 kts 117°
2026-05-04 20:48 37.61846 -122.37853 27 ft 19 kts 122°
2026-05-04 20:48 37.61783 -122.37719 30 ft 17 kts 113°
2026-05-04 20:49 37.61730 -122.37554 30 ft 23 kts 112°
2026-05-04 20:49 37.61668 -122.37366 27 ft 24 kts 115°
2026-05-04 20:49 37.61589 -122.37179 28 ft 24 kts 123°
2026-05-04 20:49 37.61498 -122.36994 29 ft 25 kts 121°
2026-05-04 20:50 37.61393 -122.36806 26 ft 27 kts 129°
2026-05-04 20:50 37.61287 -122.36608 23 ft 29 kts 116°
2026-05-04 20:50 37.61195 -122.36375 26 ft 30 kts 117°
2026-05-04 20:50 37.61130 -122.36221 27 ft 30 kts 118°
2026-05-04 20:51 37.61054 -122.35960 26 ft 19 kts 65°
2026-05-04 20:51 37.61162 -122.35889 29 ft 19 kts 353°
2026-05-04 20:51 37.61217 -122.35951 24 ft 0 kts 296°
2026-05-04 20:53 37.61248 -122.36031 22 ft 39 kts 296°
2026-05-04 20:54 37.61494 -122.36614 29 ft 109 kts 298°
2026-05-04 20:54 37.61934 -122.37673 33 ft 165 kts 296°
2026-05-04 20:54 37.62492 -122.38932 775 ft 160 kts 300°
2026-05-04 20:54 37.63090 -122.40108 1516 ft 160 kts 303°
2026-05-04 20:55 37.63747 -122.41296 2070 ft 174 kts 301°
2026-05-04 20:55 37.64346 -122.42749 2387 ft 199 kts 294°
2026-05-04 20:55 37.64974 -122.44403 2830 ft 216 kts 296°
2026-05-04 20:55 37.65440 -122.45562 3104 ft 231 kts 297°
2026-05-04 20:56 37.66440 -122.47972 3707 ft 254 kts 296°
2026-05-04 20:56 37.67001 -122.50106 4496 ft 259 kts 278°
2026-05-04 20:56 37.66958 -122.52375 5339 ft 260 kts 258°
2026-05-04 20:56 37.66458 -122.54579 6209 ft 262 kts 251°
2026-05-04 20:57 37.65873 -122.56745 7067 ft 266 kts 251°
2026-05-04 20:57 37.65273 -122.58976 7913 ft 271 kts 251°
2026-05-04 20:57 37.64671 -122.61252 8763 ft 276 kts 251°
2026-05-04 20:57 37.64063 -122.63580 9605 ft 281 kts 251°
2026-05-04 20:58 37.63447 -122.65948 10381 ft 290 kts 251°
2026-05-04 20:58 37.62797 -122.68453 10778 ft 312 kts 251°
2026-05-04 20:58 37.62096 -122.71151 11147 ft 334 kts 251°
2026-05-04 20:58 37.61349 -122.74023 11532 ft 353 kts 251°
2026-05-04 20:59 37.60569 -122.77020 12111 ft 365 kts 251°
2026-05-04 20:59 37.59767 -122.80097 12743 ft 374 kts 251°
2026-05-04 20:59 37.58949 -122.83238 13511 ft 378 kts 251°
2026-05-04 20:59 37.58125 -122.86403 14296 ft 382 kts 251°
2026-05-04 21:00 37.57301 -122.89558 15035 ft 385 kts 251°
2026-05-04 21:00 37.56460 -122.92775 15795 ft 388 kts 251°
2026-05-04 21:00 37.55610 -122.96025 16496 ft 392 kts 252°
2026-05-04 21:00 37.54752 -122.99301 17186 ft 396 kts 252°
2026-05-04 21:01 37.53882 -123.02617 17872 ft 400 kts 252°
2026-05-04 21:01 37.53002 -123.05964 18549 ft 404 kts 252°
2026-05-04 21:01 37.52414 -123.08198 18977 ft 408 kts 252°
2026-05-04 21:02 37.51806 -123.10505 19407 ft 412 kts 252°
2026-05-04 21:02 37.49986 -123.17403 20628 ft 423 kts 252°
2026-05-04 21:02 37.49041 -123.20989 21195 ft 430 kts 252°
2026-05-04 21:02 37.48100 -123.24542 21762 ft 435 kts 252°
2026-05-04 21:03 37.47138 -123.28171 22336 ft 440 kts 252°
2026-05-04 21:03 37.46161 -123.31853 22874 ft 446 kts 252°
2026-05-04 21:03 37.45493 -123.34365 23225 ft 450 kts 252°
2026-05-04 21:03 37.44166 -123.39348 23927 ft 457 kts 252°
2026-05-04 21:04 37.43151 -123.43151 24462 ft 462 kts 252°
2026-05-04 21:04 37.42125 -123.46991 24986 ft 466 kts 252°
2026-05-04 21:04 37.40738 -123.52178 25801 ft 469 kts 252°
2026-05-04 21:04 37.39341 -123.57395 26539 ft 473 kts 252°
2026-05-04 21:05 37.38287 -123.61327 27044 ft 476 kts 252°
2026-05-04 21:05 37.37221 -123.65285 27548 ft 479 kts 252°
2026-05-04 21:05 37.36150 -123.69254 28100 ft 481 kts 252°
2026-05-04 21:05 37.35086 -123.73203 28557 ft 485 kts 252°
2026-05-04 21:06 37.33998 -123.77231 29031 ft 487 kts 252°
2026-05-04 21:06 37.33258 -123.79968 29361 ft 489 kts 252°
2026-05-04 21:06 37.32162 -123.84017 29812 ft 492 kts 252°
2026-05-04 21:06 37.31057 -123.88092 30273 ft 494 kts 252°
2026-05-04 21:07 37.29585 -123.93512 30896 ft 495 kts 252°
2026-05-04 21:07 37.28848 -123.96221 31217 ft 495 kts 251°
2026-05-04 21:07 37.27356 -124.01695 31858 ft 495 kts 251°
2026-05-04 21:07 37.26614 -124.04408 32090 ft 497 kts 252°
2026-05-04 21:08 37.25485 -124.08538 32243 ft 504 kts 251°
2026-05-04 21:08 37.23956 -124.14122 32674 ft 507 kts 251°
2026-05-04 21:08 37.22808 -124.18307 33068 ft 507 kts 251°
2026-05-04 21:08 37.21676 -124.22425 33507 ft 505 kts 251°
2026-05-04 21:09 37.20518 -124.26626 34047 ft 501 kts 251°
2026-05-04 21:09 37.19381 -124.30751 34576 ft 498 kts 251°
2026-05-04 21:09 37.18267 -124.34791 35044 ft 495 kts 251°
2026-05-04 21:09 37.17142 -124.38863 35402 ft 495 kts 251°
2026-05-04 21:10 37.16012 -124.42940 35710 ft 495 kts 250°
2026-05-04 21:10 37.15248 -124.45693 35925 ft 495 kts 250°
2026-05-04 21:10 37.13751 -124.51083 36370 ft 494 kts 250°
2026-05-04 21:10 37.12620 -124.55147 36724 ft 492 kts 250°
2026-05-04 21:11 37.11497 -124.59178 37142 ft 489 kts 250°
2026-05-04 21:11 37.10381 -124.63176 37622 ft 483 kts 250°
2026-05-04 21:11 37.09648 -124.65801 37896 ft 481 kts 250°
2026-05-04 21:11 37.08169 -124.71085 38276 ft 480 kts 250°
2026-05-04 21:12 37.07065 -124.75024 38560 ft 479 kts 250°
2026-05-04 21:12 37.05960 -124.78958 38793 ft 479 kts 250°
2026-05-04 21:12 37.05228 -124.81565 38940 ft 479 kts 250°
2026-05-04 21:12 37.03746 -124.86827 39236 ft 478 kts 250°
2026-05-04 21:13 37.02655 -124.90696 39446 ft 478 kts 250°
2026-05-04 21:13 37.01547 -124.94618 39628 ft 479 kts 250°
2026-05-04 21:13 37.00435 -124.98556 39797 ft 479 kts 250°
2026-05-04 21:13 36.99324 -125.02499 39942 ft 481 kts 250°
2026-05-04 21:14 36.98245 -125.06448 40054 ft 482 kts 251°
2026-05-04 21:14 36.97180 -125.10426 40084 ft 482 kts 251°
2026-05-04 21:14 36.95053 -125.18399 40075 ft 485 kts 251°
2026-05-04 21:15 36.92905 -125.26389 40060 ft 485 kts 251°
2026-05-04 21:15 36.90736 -125.34386 40075 ft 486 kts 251°
2026-05-04 21:16 36.88560 -125.42369 40075 ft 486 kts 251°
2026-05-04 21:16 36.86377 -125.50368 40076 ft 486 kts 251°
2026-05-04 21:17 36.84187 -125.58349 40069 ft 486 kts 251°
2026-05-04 21:17 36.81994 -125.66330 40077 ft 486 kts 251°
2026-05-04 21:18 36.80539 -125.71610 40076 ft 486 kts 251°
2026-05-04 21:18 36.77602 -125.82237 40076 ft 486 kts 251°
2026-05-04 21:19 36.75392 -125.90204 40076 ft 486 kts 251°
2026-05-04 21:19 36.73909 -125.95537 40076 ft 486 kts 251°
2026-05-04 21:20 36.71688 -126.03502 40076 ft 486 kts 251°
2026-05-04 21:20 36.69100 -126.12750 40078 ft 487 kts 251°
2026-05-04 21:21 36.67981 -126.16740 40076 ft 488 kts 251°
2026-05-04 21:21 36.64615 -126.28717 40061 ft 488 kts 251°
2026-05-04 21:22 36.62745 -126.35351 40063 ft 488 kts 251°
2026-05-04 21:22 36.60856 -126.42034 40061 ft 488 kts 251°
2026-05-04 21:23 36.58226 -126.51306 40064 ft 489 kts 251°
2026-05-04 21:23 36.55582 -126.60608 40071 ft 488 kts 251°
2026-05-04 21:24 36.53302 -126.68590 40066 ft 489 kts 251°
2026-05-04 21:24 36.51016 -126.76559 40070 ft 489 kts 251°
2026-05-04 21:25 36.48356 -126.85826 40054 ft 490 kts 251°
2026-05-04 21:25 36.46057 -126.93800 40066 ft 490 kts 251°
2026-05-04 21:26 36.43757 -127.01777 40057 ft 491 kts 251°
2026-05-04 21:26 36.41439 -127.09759 40064 ft 491 kts 251°
2026-05-04 21:27 36.39113 -127.17731 40066 ft 491 kts 251°
2026-05-04 21:27 36.36797 -127.25652 40065 ft 491 kts 251°
2026-05-04 21:28 36.34462 -127.33619 40055 ft 491 kts 251°
2026-05-04 21:28 36.32125 -127.41588 40075 ft 490 kts 251°
2026-05-04 21:29 36.29784 -127.49528 40075 ft 491 kts 251°
2026-05-04 21:29 36.27434 -127.57471 40077 ft 491 kts 251°
2026-05-04 21:30 36.25087 -127.65408 40062 ft 490 kts 251°
2026-05-04 21:30 36.22730 -127.73332 40058 ft 490 kts 251°
2026-05-04 21:31 36.19203 -127.85149 40082 ft 489 kts 251°
2026-05-04 21:32 36.16842 -127.93051 40075 ft 490 kts 251°
2026-05-04 21:32 36.14470 -128.00960 40076 ft 490 kts 251°
2026-05-04 21:33 36.12493 -128.07529 40075 ft 490 kts 251°
2026-05-04 21:33 36.10112 -128.15426 40076 ft 490 kts 251°
2026-05-04 21:34 36.07729 -128.23312 40076 ft 489 kts 251°
2026-05-04 21:34 36.05338 -128.31196 40067 ft 490 kts 251°
2026-05-04 21:35 36.02940 -128.39084 40077 ft 490 kts 251°
2026-05-04 21:35 36.00529 -128.46974 40077 ft 491 kts 251°
2026-05-04 21:36 35.98115 -128.54867 40067 ft 490 kts 251°
2026-05-04 21:36 35.95726 -128.62673 40081 ft 489 kts 251°
2026-05-04 21:37 35.93317 -128.70512 40082 ft 488 kts 251°
2026-05-04 21:37 35.90906 -128.78329 40065 ft 488 kts 251°
2026-05-04 21:38 35.88498 -128.86178 40076 ft 489 kts 251°
2026-05-04 21:38 35.86078 -128.93993 40076 ft 488 kts 251°
2026-05-04 21:39 35.83634 -129.01805 40066 ft 488 kts 251°
2026-05-04 21:39 35.81209 -129.09565 40076 ft 488 kts 251°
2026-05-04 21:40 35.78768 -129.17374 40076 ft 489 kts 251°
2026-05-04 21:40 35.76320 -129.25187 40076 ft 489 kts 251°
2026-05-04 21:41 35.73869 -129.32995 40076 ft 489 kts 251°
2026-05-04 21:41 35.71407 -129.40811 40076 ft 490 kts 251°
2026-05-04 21:42 35.68940 -129.48622 40076 ft 490 kts 251°
2026-05-04 21:42 35.66463 -129.56444 40076 ft 491 kts 251°
2026-05-04 21:43 35.64819 -129.61624 40077 ft 491 kts 251°
2026-05-04 21:43 35.62334 -129.69434 40067 ft 491 kts 251°